View from above orbital plane
|
View from above satellite
|
Ground track
|
The orbit data is extracted from the following two-line orbital elements,
1 22826U 93061D 19347.80432936 -.00000016 +00000-0 +11594-4 0 9990
2 22826 098.9104 340.5972 0008830 182.4568 177.6571 14.30407856367363
Epoch (UTC): | 13 December 2019 19:18:14 |
Eccentricity: | 0.0008830 |
inclination: | 98.9104° |
perigee height: | 784 km |
apogee height: | 797 km |
right ascension of ascending node: | 340.5972° |
argument of perigee: | 182.4568° |
revolutions per day: | 14.30407856 |
mean anomaly at epoch: | 177.6571° |
orbit number at epoch: | 36736 |
The dashed part of the orbit path shows where the satellite is in the earth's shadow,
|
|